FLYING LAPTOP
Last updated on Tue Sep 22 2026 00:03:48 GMT+0000 (Coordinated Universal Time)
1 42831U 17042G 26264.62246990 .00001708 00000+0 13575-3 0 9999
2 42831 97.5014 56.7175 0017323 149.6890 210.5341 15.01614512500928
Next 0 passes for location: London (51.5072 / 0.1276)
No passes found over London.